[[{"header":{"parameterUnit":"m.s-1","parameterCategory":2,"la1":30.2991,"la2":30.254,"lo1":-89.0895,"lo2":-89.0444,"dy":0.0017,"dx":0.0017,"nx":28,"ny":28,"refTime":"2023-10-04T21:00:00:Z","depth":"0","parameterNumber":2,"parameterNumberName":"U-component_of_CURRENTS"},"data":[0,0,0,0,0,0,0,0,0,0,0,0,0,0,0,0,0,0,0,0,0,0,0,0,0,0,0,0,0,0,0,0,0,0,0,0,0,0,0,0,0,0,0,0,0,0,0,0,0,0,0,0,0,0,0,0,0,0,0.0963,0.0964,0,0.0964,0.0964,0.0963,0.0961,0.0961,0.0961,0.0961,0.0956,0.0956,0.0956,0,0,0,0,0,0,0,0,0,0,0,0,0,0.0945,0.0946,0.0963,0.0964,0.0964,0.0964,0.0964,0.0963,0.0961,0.0961,0.0961,0.0961,0.0956,0.0956,0.0956,0,0,0,0,0,0,0,0,0,0,0,0,0,0.0949,0.0946,0.0963,0.0963,0.0963,0.0964,0.0964,0.0963,0.0961,0.0961,0.0961,0.0961,0.0956,0.0956,0.0956,0.0954,0,0,0.0955,0.0955,0,0,0,0,0,0,0,0,0.0949,0.095,0.0963,0.0963,0.0963,0.0963,0.0956,0.096,0.0961,0.096,0.0961,0.0961,0.0959,0.0958,0.0957,0.0953,0.0953,0.0955,0.0955,0.0955,0.0955,0,0,0,0,0,0,0,0.0949,0.0949,0.0962,0.0963,0.0963,0.0958,0.0958,0.0956,0.0958,0.096,0.096,0.0962,0.0959,0.0957,0.0957,0.0953,0.0955,0.0955,0.0955,0.0955,0.0952,0.0952,0,0,0,0,0,0,0.0952,0.0949,0.0962,0.0962,0.0957,0.0958,0.0959,0.0962,0.0958,0.0958,0.0962,0.0962,0.0957,0.0957,0.0956,0.0959,0.0955,0.0955,0.0955,0.0952,0.0952,0.0952,0,0,0,0,0,0,0.0952,0.0953,0.0962,0.0957,0.0958,0.0959,0.0962,0.0962,0.0963,0.096,0.096,0.0963,0.0957,0.0957,0.0957,0.0959,0.0955,0.0954,0.0952,0.0952,0.0952,0.0961,0,0,0,0,0,0,0.0951,0.0953,0.0955,0.0957,0.0958,0.0966,0.0962,0.0962,0.0964,0.0964,0.0961,0.096,0.0957,0.0957,0.0957,0.0958,0.0954,0.0952,0.0952,0.0952,0.0961,0.0961,0.0962,0,0,0,0,0,0.095,0.0954,0.0955,0.0957,0.0962,0.0966,0.0966,0.0966,0.0964,0.0966,0.0963,0.0961,0.0958,0.0957,0.0957,0.0958,0.0952,0.0952,0.0952,0.096,0.0961,0.0962,0,0,0,0,0,0,0.0947,0.0954,0.0956,0.0961,0.0965,0.0966,0.0967,0.0967,0.0966,0.0966,0.0962,0.0961,0.0964,0.0959,0.0958,0.0957,0.0954,0.0954,0.0961,0.0961,0.0962,0.0971,0.0954,0,0,0,0,0,0.0948,0.0952,0.0958,0.0962,0.0965,0.0966,0.0967,0.0969,0.0969,0.0968,0.0966,0.0963,0.0963,0.0961,0.0961,0.0958,0.099,0.0958,0.0959,0.096,0.0966,0.1,0.1005,0.0952,0.0952,0.0952,0,0,0.0947,0.0952,0.0954,0.0962,0.0964,0.097,0.0967,0.0971,0.0975,0.0968,0.0971,0.0969,0.0964,0.0964,0.0964,0.096,0.1,0.096,0.0961,0.0967,0.1001,0.1006,0.1011,0.0952,0.0952,0.0952,0,0,0.0949,0.0953,0.0959,0.0963,0.097,0.0972,0.0975,0.0978,0.0979,0.0982,0.0978,0.0975,0.0975,0.0969,0.0967,0.097,0.1005,0.0972,0.0978,0.1011,0.1016,0.102,0.1107,0.1119,0.0968,0.0968,0.0968,0,0.0948,0.0958,0.096,0.0968,0.0974,0.0975,0.0984,0.0984,0.0986,0.0992,0.0985,0.0989,0.0976,0.0981,0.0977,0.0972,0.1019,0.0975,0.1013,0.1018,0.1023,0.111,0.1123,0.0968,0.0968,0.0968,0.0968,0,0.0955,0.0964,0.0968,0.0979,0.0985,0.0992,0.0997,0.1001,0.1002,0.1006,0.1014,0.1,0.1008,0.0995,0.0984,0.1006,0.1043,0.1015,0.1014,0.1029,0.112,0.1134,0.0969,0.0969,0.0969,0.0968,0,0,0.0953,0.097,0.0972,0.0983,0.0993,0.1,0.1008,0.1021,0.1038,0.1031,0.1058,0.1031,0.1035,0.1032,0.102,0.103,0.1102,0.1036,0.1037,0.1129,0.1229,0.126,0.1279,0.1086,0.1087,0.1088,0.1295,0,0.096,0.0978,0.0984,0.1003,0.1014,0.1021,0.1033,0.1044,0.1054,0.1081,0.1069,0.1091,0.1047,0.1061,0.1062,0.1095,0.1132,0.1052,0.1195,0.1201,0.123,0.1292,0.1269,0.1451,0.1309,0.1311,0.1313,0,0.0966,0.0979,0.0998,0.1025,0.1031,0.1042,0.1071,0.1083,0.1113,0.1128,0.1142,0.1153,0.1178,0.1134,0.1208,0.1166,0.1203,0.1221,0.1229,0.126,0.1255,0.1404,0.1481,0.1461,0.1334,0.1332,0.1331,0,0.0967,0.099,0.1008,0.1015,0.1042,0.1055,0.107,0.1096,0.1127,0.1171,0.1217,0.1235,0.1282,0.1302,0.1342,0.129,0.1444,0.1378,0.1451,0.1457,0.1466,0.1468,0.154,0.1441,0.144,0.144,0.1439,0,0.0973,0.0987,0.1011,0.1021,0.1046,0.1065,0.1102,0.112,0.1178,0.1224,0.1248,0.1307,0.1324,0.1406,0.1408,0.1504,0.1511,0.1485,0.1509,0.1472,0.1473,0.1476,0.1431,0.1447,0.1446,0.1444,0.1443,0,0.0969,0.0985,0.1006,0.1037,0.1046,0.1064,0.1122,0.1154,0.1215,0.1285,0.1316,0.1409,0.1515,0.156,0.1636,0.1622,0.1648,0.1711,0.1697,0.1713,0.1714,0.1669,0.1665,0.1618,0.1824,0.1826,0.1827,0,0.0968,0.0979,0.101,0.1023,0.1035,0.107,0.1095,0.1157,0.1198,0.1337,0.1377,0.1528,0.1607,0.1777,0.18,0.188,0.1766,0.1893,0.1753,0.1744,0.1713,0.157,0.1518,0.1799,0.18,0.1802,0.1802,0,0.0964,0.0975,0.0992,0.1017,0.104,0.1072,0.1115,0.1161,0.1242,0.1329,0.1452,0.1542,0.1725,0.1813,0.1939,0.1949,0.18,0.1915,0.1897,0.1701,0.156,0.1517,0.1671,0.1812,0.1811,0.181,0.181,0.1809,0.0956,0.0964,0.0987,0.1009,0.1036,0.1065,0.1086,0.1148,0.123,0.1343,0.1451,0.1581,0.1766,0.1937,0.1953,0.1993,0.1882,0.1929,0.189,0.1757,0.1651,0.1853,0.2006,0.2006,0.2006,0.2006,0.2006,0,0.0943,0.0956,0.0977,0.1002,0.1022,0.1043,0.1092,0.1112,0.1184,0.1321,0.1427,0.1646,0.178,0.1904,0.2027,0.1984,0.1829,0.193,0.172,0.1677,0.1885,0.1823,0.1952,0.1952,0.1952,0.1952,0.1952,0.1952,0.0937,0.0949,0.0962,0.0981,0.0999,0.1012,0.103,0.1064,0.1149,0.1296,0.1434,0.155,0.1781,0.1948,0.1983,0.1943,0.1777,0.1706,0.1661,0.1819,0.1814,0.1809,0.1742,0.1852,0.1852,0.1388,0.1385,0.1383]},{"header":{"parameterUnit":"m.s-1","parameterCategory":2,"la1":30.2991,"la2":30.254,"lo1":-89.0895,"lo2":-89.0444,"dy":0.0017,"dx":0.0017,"nx":28,"ny":28,"refTime":"2023-10-04T21:00:00:Z","depth":"0","parameterNumber":3,"parameterNumberName":"V-component_of_CURRENTS"},"data":[0,0,0,0,0,0,0,0,0,0,0,0,0,0,0,0,0,0,0,0,0,0,0,0,0,0,0,0,0,0,0,0,0,0,0,0,0,0,0,0,0,0,0,0,0,0,0,0,0,0,0,0,0,0,0,0,0,0,0.0082,0.0082,0,0.0074,0.0074,0.0074,0.007,0.007,0.007,0.007,0.0057,0.0057,0.0057,0,0,0,0,0,0,0,0,0,0,0,0,0,0.0097,0.0097,0.0082,0.0082,0.0082,0.0074,0.0074,0.0074,0.007,0.007,0.007,0.007,0.0058,0.0057,0.0057,0,0,0,0,0,0,0,0,0,0,0,0,0,0.009,0.0097,0.0082,0.008,0.0079,0.0074,0.0074,0.0074,0.007,0.007,0.007,0.007,0.0058,0.0057,0.0057,0.0052,0,0,0.0055,0.0055,0,0,0,0,0,0,0,0,0.009,0.0089,0.008,0.008,0.0079,0.0073,0.0074,0.0066,0.007,0.0074,0.007,0.007,0.0062,0.0061,0.006,0.0052,0.0051,0.0055,0.0055,0.0054,0.0054,0,0,0,0,0,0,0,0.0091,0.009,0.0079,0.008,0.0079,0.0079,0.0078,0.0073,0.0068,0.0073,0.0073,0.0072,0.0062,0.006,0.0059,0.0051,0.0055,0.0054,0.0054,0.0054,0.0018,0.0018,0,0,0,0,0,0,0.0092,0.009,0.0079,0.0079,0.0085,0.0079,0.0078,0.0075,0.0068,0.0067,0.0072,0.0072,0.0061,0.006,0.0059,0.0036,0.0054,0.0054,0.0053,0.0019,0.0018,0.0018,0,0,0,0,0,0,0.0092,0.0091,0.008,0.0084,0.0083,0.0079,0.0076,0.0075,0.0073,0.0067,0.0066,0.0071,0.0061,0.006,0.005,0.0036,0.0054,0.0053,0.002,0.0019,0.0018,0.0,0,0,0,0,0,0,0.0093,0.0091,0.009,0.0084,0.0083,0.0076,0.0076,0.0075,0.0073,0.0072,0.0066,0.0065,0.0061,0.0051,0.005,0.0035,0.0053,0.0021,0.0019,0.0018,0.0002,-0.0001,-0.0003,0,0,0,0,0,0.0093,0.0093,0.0089,0.0088,0.0081,0.0076,0.0075,0.0072,0.0072,0.0071,0.0064,0.0065,0.0043,0.0051,0.0049,0.0034,0.0021,0.002,0.0018,0.0003,-0.0,-0.0003,0,0,0,0,0,0,0.0101,0.0092,0.0089,0.0086,0.008,0.0075,0.0075,0.0072,0.0066,0.0066,0.0061,0.0059,0.0042,0.0043,0.0051,0.002,0.0031,0.0029,0.0019,0.0016,0.0014,0.0003,0.0052,0,0,0,0,0,0.0101,0.0097,0.0089,0.0087,0.0085,0.0079,0.0077,0.0075,0.0069,0.0067,0.006,0.0051,0.0035,0.003,0.002,0.0008,0.0016,-0.0004,-0.0007,-0.0009,-0.0019,-0.002,-0.0023,0.0013,0.0013,0.0013,0,0,0.0103,0.0098,0.0097,0.0089,0.0085,0.0079,0.0078,0.0075,0.0067,0.0066,0.0053,0.0042,0.0029,0.0011,0.0003,0.0011,-0.0011,-0.0011,-0.0012,-0.0022,-0.0022,-0.0025,-0.0028,0.0012,0.0012,0.0013,0,0,0.0109,0.0102,0.0102,0.0095,0.0089,0.0081,0.008,0.0072,0.0065,0.0052,0.0042,0.002,0.0011,-0.0011,-0.0021,-0.0044,-0.0026,-0.0043,-0.0063,-0.0063,-0.0066,-0.0069,-0.0044,-0.0045,-0.0042,-0.0042,-0.0042,0,0.0114,0.0111,0.0101,0.0098,0.0094,0.0082,0.0079,0.0066,0.0056,0.0043,0.0047,0.0008,-0.0006,-0.0039,-0.0054,-0.0052,-0.0035,-0.0049,-0.0066,-0.0069,-0.0071,-0.0045,-0.0046,-0.0043,-0.0043,-0.0043,-0.0043,0,0.0119,0.0115,0.0114,0.0103,0.0095,0.0092,0.0073,0.0061,0.0049,0.0032,0.0001,-0.0019,-0.004,-0.0055,-0.0065,-0.0095,-0.0071,-0.0069,-0.0057,-0.0076,-0.0047,-0.0047,-0.0044,-0.0044,-0.0044,-0.0043,0,0,0.0133,0.0121,0.012,0.0119,0.0099,0.0096,0.0072,0.0047,0.0039,0.0007,-0.0002,-0.0062,-0.0072,-0.0086,-0.0099,-0.0115,-0.012,-0.0102,-0.0101,-0.0075,-0.0096,-0.0082,-0.008,-0.0114,-0.0115,-0.0115,-0.0062,0,0.0141,0.0142,0.0128,0.0124,0.0123,0.0099,0.0083,0.0055,0.0035,0.0023,-0.0024,-0.0033,-0.0082,-0.0076,-0.0111,-0.0109,-0.0123,-0.0133,-0.0085,-0.0084,-0.0067,-0.0082,-0.0068,-0.0021,-0.0062,-0.0062,-0.0062,0,0.015,0.015,0.0151,0.014,0.0138,0.0129,0.0107,0.0092,0.0055,0.0046,0.0007,-0.0008,-0.0049,-0.0068,-0.0106,-0.0104,-0.0112,-0.0117,-0.0114,-0.01,-0.0071,-0.0014,-0.0019,-0.0089,-0.0061,-0.0062,-0.0062,0,0.0171,0.0165,0.0168,0.0164,0.0148,0.0141,0.0128,0.0095,0.0102,0.0072,0.0096,0.0025,0.0043,-0.0012,-0.0043,-0.0063,-0.0057,-0.0076,-0.0076,-0.0073,-0.0055,-0.005,-0.0124,-0.0107,-0.0107,-0.0107,-0.0107,0,0.0186,0.0188,0.0181,0.0184,0.019,0.0167,0.0174,0.0151,0.0155,0.0182,0.0118,0.0153,0.0061,0.0053,-0.001,-0.0033,-0.0029,-0.0085,-0.0068,-0.0058,-0.0055,-0.0109,-0.0162,-0.0105,-0.0105,-0.0106,-0.0106,0,0.0207,0.0201,0.021,0.0203,0.0202,0.0207,0.0224,0.024,0.0235,0.0284,0.0291,0.0274,0.0262,0.0177,0.0126,0.0048,-0.003,-0.0004,0.0023,0.004,-0.0054,-0.0108,-0.0145,-0.0181,-0.0007,-0.0007,-0.0006,0,0.0217,0.0225,0.0233,0.0249,0.0248,0.026,0.0278,0.0277,0.0312,0.0369,0.041,0.042,0.0439,0.036,0.0221,0.012,0.0031,0.0063,-0.0003,-0.0066,-0.0113,-0.0136,-0.0167,0.0031,0.0031,0.0032,0.0033,0,0.024,0.0245,0.0256,0.0292,0.0315,0.035,0.0381,0.0431,0.0456,0.0519,0.0613,0.0642,0.0562,0.0474,0.0318,0.0222,0.0007,0.0072,-0.0006,-0.0111,-0.0128,-0.0151,0.002,0.0038,0.0037,0.0037,0.0036,0.0036,0.0261,0.028,0.0303,0.0337,0.0376,0.0444,0.0497,0.0558,0.0648,0.0763,0.0772,0.0856,0.07,0.0488,0.0326,0.0071,0.0057,-0.0005,-0.0065,-0.0082,-0.0135,0.0052,0.009,0.009,0.0089,0.0089,0.0089,0,0.0289,0.0313,0.035,0.0404,0.0469,0.0477,0.0573,0.0648,0.078,0.0892,0.0982,0.1006,0.0778,0.0532,0.018,-0.0022,-0.0114,-0.0126,-0.0175,-0.0203,-0.0039,-0.0058,-0.0035,-0.0035,-0.0035,-0.0035,-0.0035,-0.0035,0.0306,0.0347,0.0369,0.0475,0.0527,0.0633,0.0703,0.0817,0.0921,0.1109,0.1217,0.127,0.1153,0.0444,-0.0015,-0.0155,-0.0305,-0.0317,-0.0392,-0.0304,-0.0298,-0.0292,-0.0323,-0.0356,-0.0357,-0.052,-0.0522,-0.0524]}],[{"header":{"parameterUnit":"m.s-1","parameterCategory":2,"la1":30.2991,"la2":30.254,"lo1":-89.0895,"lo2":-89.0444,"dy":0.0017,"dx":0.0017,"nx":28,"ny":28,"refTime":"2023-10-04T21:00:00:Z","depth":"2","parameterNumber":2,"parameterNumberName":"U-component_of_CURRENTS"},"data":[0,0,0,0,0,0,0,0,0,0,0,0,0,0,0,0,0,0,0,0,0,0,0,0,0,0,0,0,0,0,0,0,0,0,0,0,0,0,0,0,0,0,0,0,0,0,0,0,0,0,0,0,0,0,0,0,0,0,0.0934,0.0934,0,0.0937,0.0937,0.0937,0.0936,0.0936,0.0936,0.0936,0.0933,0.0933,0.0933,0,0,0,0,0,0,0,0,0,0,0,0,0,0.0912,0.0912,0.0934,0.0934,0.0934,0.0937,0.0937,0.0937,0.0936,0.0936,0.0936,0.0936,0.0933,0.0933,0.0933,0,0,0,0,0,0,0,0,0,0,0,0,0,0.0918,0.0913,0.0934,0.0934,0.0935,0.0937,0.0937,0.0937,0.0936,0.0936,0.0936,0.0936,0.0933,0.0933,0.0933,0.0932,0,0,0.0933,0.0933,0,0,0,0,0,0,0,0,0.0918,0.0919,0.0934,0.0934,0.0935,0.0937,0.0929,0.0936,0.0936,0.0934,0.0936,0.0936,0.0935,0.0935,0.0934,0.0932,0.0932,0.0933,0.0933,0.0933,0.0933,0,0,0,0,0,0,0,0.0917,0.0918,0.0934,0.0934,0.0935,0.093,0.0931,0.093,0.0933,0.0934,0.0934,0.0937,0.0935,0.0934,0.0934,0.0932,0.0933,0.0933,0.0933,0.0933,0.0937,0.0937,0,0,0,0,0,0,0.092,0.0918,0.0934,0.0934,0.0927,0.0931,0.0932,0.0935,0.0933,0.0933,0.0937,0.0936,0.0934,0.0934,0.0933,0.094,0.0933,0.0933,0.0933,0.0937,0.0937,0.0937,0,0,0,0,0,0,0.092,0.0921,0.0934,0.0927,0.0928,0.0931,0.0935,0.0935,0.0938,0.0935,0.0935,0.0939,0.0934,0.0934,0.0937,0.0939,0.0933,0.0932,0.0937,0.0937,0.0937,0.0947,0,0,0,0,0,0,0.0919,0.0921,0.0924,0.0927,0.0929,0.0939,0.0935,0.0935,0.0939,0.0939,0.0938,0.0937,0.0934,0.0937,0.0936,0.0939,0.0932,0.0936,0.0937,0.0937,0.0947,0.0948,0.0949,0,0,0,0,0,0.0918,0.0923,0.0924,0.0926,0.0933,0.094,0.094,0.0941,0.094,0.0943,0.0941,0.0937,0.0939,0.0937,0.0936,0.0939,0.0936,0.0937,0.0937,0.0946,0.0948,0.0949,0,0,0,0,0,0,0.0914,0.0923,0.0925,0.0932,0.0938,0.094,0.0943,0.0943,0.0944,0.0944,0.094,0.094,0.0945,0.094,0.0939,0.0941,0.0937,0.0937,0.0944,0.0945,0.0946,0.0952,0.0932,0,0,0,0,0,0.0915,0.0921,0.0929,0.0934,0.0938,0.0941,0.0943,0.0945,0.0947,0.0948,0.0946,0.0945,0.0946,0.0944,0.0946,0.0945,0.0976,0.0947,0.0948,0.0949,0.0954,0.0987,0.0992,0.0939,0.0939,0.0939,0,0,0.0914,0.0921,0.0923,0.0934,0.0937,0.0946,0.0942,0.0949,0.0954,0.0947,0.0952,0.0951,0.0948,0.0951,0.0952,0.0946,0.0988,0.0949,0.095,0.0955,0.0988,0.0994,0.0998,0.0939,0.0939,0.0939,0,0,0.0917,0.0922,0.093,0.0936,0.0946,0.0949,0.0953,0.0959,0.096,0.0966,0.0962,0.0961,0.0963,0.0958,0.0957,0.0963,0.0996,0.0966,0.0972,0.1005,0.101,0.1014,0.1097,0.1109,0.0962,0.0962,0.0962,0,0.0916,0.0928,0.0932,0.0942,0.0949,0.0953,0.0963,0.0965,0.097,0.0976,0.097,0.0976,0.0965,0.0972,0.0969,0.0965,0.1011,0.0967,0.1007,0.1012,0.1017,0.11,0.1113,0.0963,0.0963,0.0963,0.0962,0,0.0925,0.0936,0.0941,0.0955,0.0963,0.0972,0.0979,0.0986,0.0988,0.0992,0.1002,0.099,0.0998,0.0987,0.0977,0.1,0.1035,0.1009,0.1006,0.1023,0.111,0.1123,0.0963,0.0963,0.0963,0.0963,0,0,0.0921,0.0944,0.0946,0.0958,0.0972,0.098,0.0991,0.1006,0.1023,0.1019,0.1046,0.1022,0.1026,0.1024,0.1013,0.1023,0.1094,0.103,0.1031,0.1118,0.1219,0.1227,0.1243,0.108,0.1082,0.1083,0.1281,0,0.0928,0.095,0.0959,0.098,0.0993,0.1002,0.1016,0.1029,0.104,0.1068,0.1058,0.1081,0.1038,0.1053,0.1054,0.1089,0.1124,0.1046,0.1185,0.119,0.1198,0.1255,0.1136,0.13,0.1294,0.1296,0.1298,0,0.0935,0.095,0.0972,0.1001,0.1009,0.102,0.1051,0.1064,0.1097,0.1113,0.1128,0.114,0.1165,0.1123,0.1196,0.1156,0.1192,0.121,0.1217,0.1227,0.1221,0.1274,0.1325,0.132,0.1319,0.1317,0.1315,0,0.0932,0.096,0.0979,0.0988,0.1019,0.1032,0.1048,0.1076,0.1107,0.1154,0.1199,0.1219,0.1265,0.1286,0.1324,0.1277,0.1423,0.1364,0.1414,0.1417,0.1343,0.1336,0.1423,0.1423,0.1422,0.1422,0.1421,0,0.0936,0.0952,0.0981,0.0992,0.1018,0.1039,0.1076,0.1095,0.1155,0.1201,0.1228,0.1284,0.1306,0.1385,0.1388,0.1469,0.1487,0.1443,0.1465,0.1347,0.1339,0.1358,0.1347,0.1429,0.1428,0.1426,0.1425,0,0.0929,0.0948,0.0972,0.1007,0.1017,0.1036,0.1094,0.1125,0.1188,0.1259,0.1289,0.1381,0.1479,0.1523,0.1596,0.1579,0.1631,0.1652,0.1543,0.1545,0.1594,0.1582,0.1735,0.1737,0.1738,0.1739,0.1741,0,0.0927,0.0939,0.0975,0.0989,0.1003,0.1039,0.1064,0.1127,0.1168,0.1306,0.1344,0.1485,0.155,0.1704,0.1711,0.1777,0.1737,0.1696,0.1549,0.1619,0.1625,0.161,0.1597,0.1483,0.1482,0.1481,0.148,0,0.0921,0.0933,0.0952,0.098,0.1005,0.1038,0.1081,0.1124,0.1206,0.1288,0.1404,0.1482,0.1636,0.1655,0.1755,0.1746,0.1666,0.168,0.18,0.1406,0.1393,0.1394,0.1387,0.1472,0.1473,0.1474,0.1474,0.1474,0.0911,0.092,0.0945,0.0969,0.0997,0.1026,0.1044,0.1103,0.1177,0.1278,0.1382,0.1468,0.154,0.1628,0.1614,0.1607,0.1696,0.1598,0.1596,0.1596,0.1515,0.1502,0.1592,0.1594,0.1595,0.1596,0.1597,0,0.0896,0.091,0.0933,0.0959,0.0978,0.1002,0.1048,0.1063,0.1122,0.1232,0.1322,0.13,0.1361,0.1421,0.1415,0.1439,0.1363,0.1364,0.1246,0.1259,0.1269,0.1164,0.1153,0.1151,0.1149,0.1147,0,0,0.0889,0.09,0.0913,0.0932,0.0952,0.0963,0.0978,0.1002,0.1064,0.1114,0.1165,0.1309,0.1403,0.1257,0.1261,0.1208,0.1204,0.1157,0.1525,0.1402,0.1408,0.1435,0.1293,0,0,0,0,0]},{"header":{"parameterUnit":"m.s-1","parameterCategory":2,"la1":30.2991,"la2":30.254,"lo1":-89.0895,"lo2":-89.0444,"dy":0.0017,"dx":0.0017,"nx":28,"ny":28,"refTime":"2023-10-04T21:00:00:Z","depth":"2","parameterNumber":3,"parameterNumberName":"V-component_of_CURRENTS"},"data":[0,0,0,0,0,0,0,0,0,0,0,0,0,0,0,0,0,0,0,0,0,0,0,0,0,0,0,0,0,0,0,0,0,0,0,0,0,0,0,0,0,0,0,0,0,0,0,0,0,0,0,0,0,0,0,0,0,0,-0.0033,-0.0033,0,-0.0043,-0.0043,-0.0043,-0.0047,-0.0047,-0.0047,-0.0047,-0.0062,-0.0063,-0.0063,0,0,0,0,0,0,0,0,0,0,0,0,0,-0.0016,-0.0016,-0.0033,-0.0033,-0.0033,-0.0043,-0.0043,-0.0043,-0.0047,-0.0047,-0.0047,-0.0047,-0.0062,-0.0063,-0.0063,0,0,0,0,0,0,0,0,0,0,0,0,0,-0.0025,-0.0016,-0.0033,-0.0036,-0.0036,-0.0043,-0.0043,-0.0043,-0.0047,-0.0047,-0.0047,-0.0047,-0.0062,-0.0063,-0.0064,-0.0069,0,0,-0.0066,-0.0066,0,0,0,0,0,0,0,0,-0.0024,-0.0025,-0.0035,-0.0036,-0.0036,-0.0043,-0.0043,-0.0052,-0.0047,-0.0043,-0.0047,-0.0047,-0.0057,-0.0058,-0.006,-0.007,-0.0071,-0.0066,-0.0066,-0.0066,-0.0067,0,0,0,0,0,0,0,-0.0023,-0.0025,-0.0037,-0.0036,-0.0036,-0.0037,-0.0038,-0.0045,-0.005,-0.0043,-0.0044,-0.0045,-0.0057,-0.0059,-0.006,-0.0071,-0.0066,-0.0066,-0.0067,-0.0067,-0.0102,-0.0103,0,0,0,0,0,0,-0.0022,-0.0024,-0.0037,-0.0037,-0.003,-0.0037,-0.0038,-0.0041,-0.005,-0.0051,-0.0045,-0.0045,-0.0058,-0.006,-0.0061,-0.0083,-0.0066,-0.0067,-0.0067,-0.0102,-0.0102,-0.0103,0,0,0,0,0,0,-0.0022,-0.0023,-0.0036,-0.0031,-0.0032,-0.0037,-0.0041,-0.0042,-0.0043,-0.0051,-0.0052,-0.0045,-0.0058,-0.006,-0.0069,-0.0083,-0.0067,-0.0068,-0.0101,-0.0102,-0.0103,-0.0118,0,0,0,0,0,0,-0.0021,-0.0023,-0.0024,-0.0031,-0.0033,-0.004,-0.0041,-0.0042,-0.0044,-0.0044,-0.0052,-0.0053,-0.0058,-0.0068,-0.007,-0.0084,-0.0069,-0.01,-0.0101,-0.0102,-0.0117,-0.0119,-0.0121,0,0,0,0,0,-0.0021,-0.0021,-0.0024,-0.0026,-0.0034,-0.004,-0.0041,-0.0044,-0.0044,-0.0045,-0.0052,-0.0053,-0.0076,-0.0069,-0.0071,-0.0085,-0.01,-0.0101,-0.0102,-0.0116,-0.0118,-0.0121,0,0,0,0,0,0,-0.0013,-0.0022,-0.0025,-0.0028,-0.0034,-0.004,-0.0041,-0.0044,-0.005,-0.0049,-0.0057,-0.0059,-0.0075,-0.0076,-0.0068,-0.0099,-0.0089,-0.0091,-0.0099,-0.0102,-0.0104,-0.0112,-0.0069,0,0,0,0,0,-0.0012,-0.0016,-0.0024,-0.0026,-0.0029,-0.0035,-0.0037,-0.004,-0.0046,-0.0049,-0.0056,-0.0066,-0.0082,-0.0087,-0.0098,-0.011,-0.0103,-0.0122,-0.0124,-0.0125,-0.0134,-0.0133,-0.0136,-0.0107,-0.0107,-0.0107,0,0,-0.0009,-0.0015,-0.0016,-0.0025,-0.0029,-0.0035,-0.0036,-0.0039,-0.0047,-0.005,-0.0061,-0.0073,-0.0087,-0.0105,-0.0113,-0.0106,-0.0127,-0.0127,-0.0128,-0.0136,-0.0134,-0.0137,-0.014,-0.0107,-0.0107,-0.0107,0,0,-0.0003,-0.0011,-0.0011,-0.0017,-0.0024,-0.0031,-0.0032,-0.004,-0.0048,-0.0059,-0.007,-0.0091,-0.0103,-0.0124,-0.0134,-0.0155,-0.014,-0.0155,-0.0171,-0.017,-0.0172,-0.0174,-0.0155,-0.0155,-0.0154,-0.0154,-0.0154,0,0.0002,-0.0002,-0.0012,-0.0015,-0.0018,-0.003,-0.0032,-0.0045,-0.0055,-0.0067,-0.0064,-0.0101,-0.0116,-0.0149,-0.0163,-0.0162,-0.0147,-0.0159,-0.0172,-0.0174,-0.0176,-0.0156,-0.0156,-0.0155,-0.0155,-0.0154,-0.0154,0,0.0005,0.0002,0.0002,-0.0009,-0.0016,-0.0018,-0.0037,-0.0048,-0.0058,-0.0075,-0.0104,-0.0124,-0.0145,-0.0159,-0.0171,-0.0198,-0.0178,-0.0176,-0.0164,-0.018,-0.0157,-0.0157,-0.0156,-0.0156,-0.0155,-0.0155,0,0,0.0017,0.0007,0.0007,0.0007,-0.0012,-0.0014,-0.0036,-0.0059,-0.0065,-0.0095,-0.0102,-0.0161,-0.017,-0.0184,-0.0198,-0.0213,-0.0218,-0.0202,-0.0202,-0.018,-0.0196,-0.0199,-0.0199,-0.0211,-0.0211,-0.0212,-0.0169,0,0.0025,0.0027,0.0014,0.0012,0.0012,-0.001,-0.0024,-0.0049,-0.0068,-0.0077,-0.0122,-0.0131,-0.0178,-0.0173,-0.0205,-0.0206,-0.022,-0.0228,-0.0187,-0.0185,-0.0185,-0.0201,-0.0193,-0.0157,-0.0169,-0.0169,-0.0169,0,0.0032,0.0034,0.0036,0.0029,0.0027,0.002,0.0002,-0.0012,-0.0045,-0.0053,-0.0088,-0.0103,-0.0142,-0.016,-0.0198,-0.0195,-0.0207,-0.0213,-0.0211,-0.0213,-0.019,-0.0147,-0.0156,-0.0168,-0.0168,-0.0168,-0.0168,0,0.0051,0.0048,0.0053,0.005,0.0038,0.0032,0.0022,-0.0008,-0.0,-0.0026,-0.0003,-0.0069,-0.0053,-0.0105,-0.0141,-0.0158,-0.0158,-0.0173,-0.0191,-0.019,-0.0177,-0.0175,-0.0202,-0.0202,-0.0202,-0.0202,-0.0202,0,0.0064,0.0068,0.0065,0.0069,0.0078,0.0058,0.0067,0.0047,0.0052,0.0078,0.0019,0.005,-0.0036,-0.0048,-0.011,-0.0145,-0.0132,-0.02,-0.0187,-0.0181,-0.018,-0.0189,-0.0188,-0.02,-0.0201,-0.0201,-0.0201,0,0.0083,0.008,0.009,0.0088,0.0089,0.0096,0.0114,0.013,0.0128,0.0173,0.0181,0.0161,0.0141,0.0058,0.0006,-0.0072,-0.0121,-0.0135,-0.0117,-0.0105,-0.0161,-0.0162,-0.0157,-0.0157,-0.0157,-0.0157,-0.0157,0,0.0091,0.01,0.0112,0.013,0.013,0.0145,0.0164,0.0165,0.0198,0.025,0.0288,0.0288,0.029,0.0199,0.0067,-0.0038,-0.0071,-0.0105,-0.0164,-0.0173,-0.016,-0.0161,-0.0161,-0.0138,-0.0138,-0.0138,-0.0138,0,0.0111,0.0117,0.0131,0.0168,0.0192,0.0228,0.026,0.0305,0.033,0.0384,0.0463,0.0475,0.0385,0.0278,0.0116,0.0028,-0.01,-0.0106,-0.0105,-0.0161,-0.0155,-0.0143,-0.0144,-0.0137,-0.0137,-0.0137,-0.0137,-0.0137,0.0129,0.0148,0.0173,0.0208,0.0248,0.0312,0.0359,0.0414,0.0491,0.0584,0.0588,0.0622,0.047,0.0275,0.0114,-0.0062,-0.0062,-0.0139,-0.0139,-0.014,-0.0156,-0.0151,-0.0134,-0.0134,-0.0134,-0.0134,-0.0134,0,0.0152,0.0176,0.0213,0.0266,0.0327,0.0341,0.0428,0.0487,0.0595,0.0676,0.0741,0.0626,0.0491,0.032,0.0068,-0.0097,-0.0128,-0.0159,-0.0159,-0.0159,-0.0159,-0.0177,-0.0159,-0.016,-0.016,-0.0161,0,0,0.0165,0.0203,0.0224,0.0322,0.0375,0.0471,0.0533,0.0619,0.0692,0.078,0.0814,0.0801,0.0581,0.0391,0.0158,0.0012,-0.0039,-0.0029,0.0008,0.0036,0.0038,-0.0131,-0.0156,0,0,0,0,0]}],[{"header":{"parameterUnit":"m.s-1","parameterCategory":2,"la1":30.2991,"la2":30.254,"lo1":-89.0895,"lo2":-89.0444,"dy":0.0017,"dx":0.0017,"nx":28,"ny":28,"refTime":"2023-10-04T21:00:00:Z","depth":"4","parameterNumber":2,"parameterNumberName":"U-component_of_CURRENTS"},"data":[0,0,0,0,0,0,0,0,0,0,0,0,0,0,0,0,0,0,0,0,0,0,0,0,0,0,0,0,0,0,0,0,0,0,0,0,0,0,0,0,0,0,0,0,0,0,0,0,0,0,0,0,0,0,0,0,0,0,0.057,0.057,0,0.0585,0.0586,0.0586,0.0621,0.0621,0.0622,0.0623,0.0652,0.0652,0.0653,0,0,0,0,0,0,0,0,0,0,0,0,0,0.0566,0.0565,0.057,0.057,0.057,0.0585,0.0586,0.0586,0.062,0.0621,0.0622,0.0623,0.0652,0.0652,0.0653,0,0,0,0,0,0,0,0,0,0,0,0,0,0.0572,0.0565,0.0569,0.059,0.0592,0.0585,0.0586,0.0586,0.062,0.0621,0.0623,0.0624,0.0652,0.0652,0.0653,0.063,0,0,0.0653,0.0653,0,0,0,0,0,0,0,0,0.0572,0.0572,0.0586,0.0588,0.0591,0.0603,0.0595,0.0602,0.062,0.0609,0.0623,0.0624,0.0637,0.0638,0.0637,0.0631,0.0633,0.0653,0.0653,0.0653,0.0653,0,0,0,0,0,0,0,0.0571,0.0572,0.0575,0.0587,0.0589,0.0597,0.0599,0.0596,0.0616,0.061,0.0612,0.0615,0.0638,0.0637,0.0638,0.0633,0.0653,0.0653,0.0653,0.0653,0.0648,0.0648,0,0,0,0,0,0,0.0569,0.0571,0.0575,0.0576,0.0585,0.0596,0.0598,0.0597,0.0616,0.062,0.0614,0.0616,0.0636,0.0638,0.064,0.0673,0.0653,0.0653,0.0653,0.0648,0.0648,0.0648,0,0,0,0,0,0,0.0569,0.0569,0.0574,0.0575,0.0576,0.0595,0.0593,0.0597,0.0613,0.0619,0.0623,0.0628,0.0637,0.0639,0.0647,0.0672,0.0653,0.0653,0.0649,0.0648,0.0648,0.0701,0,0,0,0,0,0,0.0569,0.0569,0.0575,0.0574,0.0576,0.0578,0.0592,0.0596,0.0612,0.0616,0.0632,0.0635,0.0638,0.0647,0.0647,0.0672,0.0653,0.0649,0.0649,0.0648,0.07,0.0703,0.0705,0,0,0,0,0,0.0569,0.057,0.0575,0.0576,0.0581,0.0578,0.0579,0.0596,0.0612,0.0616,0.0627,0.0635,0.0645,0.0646,0.0647,0.0672,0.0649,0.0649,0.0648,0.0698,0.0702,0.0705,0,0,0,0,0,0,0.0576,0.0573,0.0579,0.0582,0.0584,0.0584,0.0593,0.0601,0.0613,0.0625,0.0631,0.0634,0.0648,0.0643,0.0645,0.0666,0.0649,0.0648,0.0687,0.069,0.0693,0.0735,0.0653,0,0,0,0,0,0.0577,0.0578,0.0576,0.0581,0.0582,0.0589,0.0594,0.0605,0.0611,0.0619,0.063,0.0638,0.0642,0.0654,0.065,0.0663,0.0676,0.0677,0.068,0.0682,0.0714,0.0733,0.0741,0.0647,0.0647,0.0647,0,0,0.0583,0.0582,0.0585,0.0583,0.0588,0.0582,0.0596,0.0607,0.0614,0.0619,0.0638,0.0645,0.0643,0.0659,0.0666,0.0664,0.0714,0.0682,0.0685,0.0716,0.0733,0.0743,0.0752,0.0646,0.0646,0.0646,0,0,0.0584,0.0592,0.0589,0.0588,0.0595,0.0593,0.0598,0.0606,0.0625,0.0634,0.0644,0.0668,0.0668,0.0685,0.0689,0.0701,0.0721,0.0699,0.0763,0.078,0.0789,0.0797,0.0825,0.0835,0.071,0.071,0.071,0,0.0594,0.0589,0.059,0.0583,0.0586,0.0597,0.0593,0.0605,0.0619,0.0649,0.0646,0.0689,0.0682,0.0726,0.0738,0.0713,0.0734,0.0754,0.0788,0.0796,0.0803,0.083,0.0841,0.0713,0.0713,0.0712,0.0712,0,0.0586,0.0587,0.0587,0.0579,0.0577,0.0583,0.0589,0.0614,0.0638,0.066,0.0717,0.0723,0.0757,0.0757,0.0758,0.0816,0.0818,0.0783,0.0788,0.0817,0.0842,0.0852,0.0716,0.0716,0.0715,0.0714,0,0,0.0593,0.0584,0.0586,0.0583,0.0581,0.0576,0.0601,0.0633,0.0679,0.071,0.0773,0.0797,0.0834,0.0842,0.0852,0.089,0.0951,0.088,0.088,0.0926,0.1015,0.096,0.0966,0.0933,0.0935,0.0936,0.1012,0,0.0592,0.058,0.0576,0.0569,0.0562,0.0585,0.0613,0.065,0.069,0.0754,0.0807,0.086,0.0852,0.0895,0.0926,0.0954,0.0982,0.0935,0.0966,0.0968,0.093,0.0977,0.0943,0.102,0.1022,0.1024,0.1025,0,0.0582,0.0577,0.057,0.0581,0.0584,0.0597,0.0658,0.0688,0.0782,0.0822,0.0898,0.0932,0.1019,0.0986,0.1068,0.1048,0.104,0.1054,0.1055,0.1001,0.0932,0.0982,0.1044,0.1042,0.1041,0.1039,0.1038,0,0.0575,0.0571,0.0568,0.0567,0.0582,0.062,0.0659,0.0736,0.079,0.0893,0.0933,0.1028,0.1073,0.1114,0.1134,0.1116,0.1209,0.1163,0.1106,0.1101,0.1106,0.1096,0.1196,0.1196,0.1196,0.1196,0.1196,0,0.0564,0.0563,0.058,0.0577,0.0612,0.0639,0.0709,0.0766,0.0873,0.0927,0.0983,0.1034,0.1108,0.1155,0.1174,0.1188,0.1226,0.1147,0.1125,0.1123,0.1114,0.1113,0.1103,0.1199,0.1198,0.1198,0.1197,0,0.0545,0.0553,0.0548,0.0582,0.0604,0.0641,0.0737,0.0793,0.0888,0.0961,0.1001,0.1075,0.1145,0.1196,0.126,0.1214,0.1248,0.1221,0.1247,0.1219,0.1125,0.1116,0.1198,0.1196,0.1196,0.1195,0.1194,0,0.0532,0.0529,0.0545,0.0556,0.058,0.0644,0.0695,0.0803,0.0847,0.0968,0.0988,0.1093,0.1122,0.1189,0.1235,0.1286,0.1244,0.1241,0.1172,0.1159,0.1129,0.1121,0.1114,0.1193,0.1192,0.1192,0.1192,0,0.0505,0.0515,0.0511,0.0537,0.0577,0.061,0.0689,0.0723,0.0832,0.0904,0.0979,0.1041,0.1096,0.1168,0.12,0.122,0.1253,0.123,0.1231,0.1167,0.1153,0.1123,0.1117,0.1188,0.1189,0.1189,0.1189,0,0.049,0.0481,0.0485,0.0506,0.0545,0.0575,0.0619,0.0681,0.0754,0.0879,0.0904,0.1006,0.1091,0.1132,0.1174,0.1198,0.1174,0.1117,0.1123,0.1128,0.1068,0.1038,0.1046,0,0,0,0,0,0.047,0.0456,0.046,0.0469,0.0506,0.0541,0.0604,0.0647,0.0733,0.0771,0.0851,0.0913,0.1001,0.1058,0.1072,0.113,0.1165,0.1137,0.1097,0.117,0.1174,0.1109,0,0,0,0,0,0,0.0453,0.045,0.044,0.0441,0.0453,0.0497,0.0542,0.0601,0.0627,0.072,0.078,0.0855,0.0957,0.0999,0.1058,0.1073,0.1027,0.1209,0.1207,0.1168,0.1171,0.1174,0.1109,0,0,0,0,0]},{"header":{"parameterUnit":"m.s-1","parameterCategory":2,"la1":30.2991,"la2":30.254,"lo1":-89.0895,"lo2":-89.0444,"dy":0.0017,"dx":0.0017,"nx":28,"ny":28,"refTime":"2023-10-04T21:00:00:Z","depth":"4","parameterNumber":3,"parameterNumberName":"V-component_of_CURRENTS"},"data":[0,0,0,0,0,0,0,0,0,0,0,0,0,0,0,0,0,0,0,0,0,0,0,0,0,0,0,0,0,0,0,0,0,0,0,0,0,0,0,0,0,0,0,0,0,0,0,0,0,0,0,0,0,0,0,0,0,0,-0.0002,-0.0002,0,-0.0012,-0.0012,-0.0013,-0.0028,-0.0028,-0.0028,-0.0029,-0.0057,-0.0057,-0.0058,0,0,0,0,0,0,0,0,0,0,0,0,0,0.0006,0.0006,-0.0002,-0.0002,-0.0002,-0.0012,-0.0013,-0.0013,-0.0028,-0.0028,-0.0029,-0.0029,-0.0057,-0.0057,-0.0058,0,0,0,0,0,0,0,0,0,0,0,0,0,-0.0001,0.0006,-0.0002,-0.0011,-0.0012,-0.0012,-0.0013,-0.0013,-0.0028,-0.0028,-0.0029,-0.0029,-0.0056,-0.0057,-0.0058,-0.0054,0,0,-0.006,-0.006,0,0,0,0,0,0,0,0,-0.0,-0.0001,-0.001,-0.0011,-0.0012,-0.0019,-0.002,-0.0027,-0.0028,-0.0022,-0.0029,-0.0029,-0.0046,-0.0047,-0.0048,-0.0056,-0.0057,-0.006,-0.0061,-0.0061,-0.0061,0,0,0,0,0,0,0,0.0,-0.0,-0.0006,-0.001,-0.0011,-0.0014,-0.0016,-0.0021,-0.0032,-0.0022,-0.0024,-0.0025,-0.0046,-0.0047,-0.0049,-0.0057,-0.006,-0.0061,-0.0061,-0.0062,-0.0032,-0.0031,0,0,0,0,0,0,0.0002,0.0,-0.0006,-0.0007,-0.0007,-0.0014,-0.0016,-0.0016,-0.0031,-0.0034,-0.0024,-0.0025,-0.0046,-0.0048,-0.005,-0.0013,-0.0061,-0.0062,-0.0062,-0.0033,-0.0032,-0.003,0,0,0,0,0,0,0.0002,0.0002,-0.0006,-0.0004,-0.0005,-0.0014,-0.0015,-0.0016,-0.0021,-0.0032,-0.0035,-0.0028,-0.0046,-0.0049,-0.0047,-0.0016,-0.0062,-0.0063,-0.0034,-0.0033,-0.0031,0.0039,0,0,0,0,0,0,0.0002,0.0002,0.0001,-0.0003,-0.0005,-0.0002,-0.0014,-0.0016,-0.0021,-0.0023,-0.0036,-0.0039,-0.0047,-0.0046,-0.0048,-0.0017,-0.0063,-0.0036,-0.0034,-0.0031,0.0035,0.0043,0.005,0,0,0,0,0,0.0003,0.0004,0.0001,0.0,-0.0005,-0.0002,-0.0002,-0.001,-0.0021,-0.0018,-0.0024,-0.0039,-0.0032,-0.0046,-0.0049,-0.0017,-0.0037,-0.0034,-0.0032,0.0032,0.0042,0.005,0,0,0,0,0,0,0.0006,0.0002,-0.0001,-0.0002,0.0,-0.0004,-0.0005,-0.0011,-0.0013,-0.0019,-0.003,-0.0033,-0.0014,-0.003,-0.0044,-0.0001,-0.0034,-0.0032,0.0015,0.0024,0.0031,0.0033,-0.0064,0,0,0,0,0,0.0007,0.0006,0.0005,0.0005,0.0006,-0.0,-0.0001,-0.0006,-0.0009,-0.0011,-0.0019,-0.002,-0.0003,-0.0003,0.0001,0.0015,-0.0024,0.0035,0.0043,0.0049,0.0049,-0.0,0.0002,-0.0021,-0.0021,-0.0021,0,0,0.0007,0.0005,0.0005,0.0006,0.0004,0.0022,-0.0002,-0.0003,0.0024,-0.0014,0.001,0.0003,0.0007,0.0033,0.004,0.0022,0.004,0.0052,0.0058,0.0055,0.0003,0.0005,0.0006,-0.0019,-0.002,-0.002,0,0,0.0012,0.0007,0.001,0.0019,0.0019,0.0027,0.0028,0.0025,0.0035,0.0049,0.0046,0.0064,0.0059,0.009,0.0102,0.0151,0.0082,0.0138,0.0174,0.0126,0.0127,0.0127,0.0099,0.0096,0.0139,0.0139,0.0139,0,0.0012,0.002,0.0013,0.0027,0.0044,0.0035,0.0058,0.0074,0.0074,0.0091,0.0064,0.0086,0.0102,0.0154,0.0178,0.0173,0.0112,0.0142,0.0134,0.0133,0.0132,0.0103,0.0099,0.0143,0.0142,0.0142,0.0142,0,0.0025,0.0037,0.0042,0.0066,0.0087,0.0099,0.0128,0.0146,0.0148,0.0158,0.0185,0.0187,0.0185,0.0216,0.0214,0.023,0.0179,0.0149,0.0108,0.0138,0.0106,0.0101,0.0148,0.0147,0.0146,0.0145,0,0,0.0014,0.0044,0.0047,0.0071,0.0109,0.0127,0.0186,0.0233,0.025,0.0257,0.0265,0.033,0.0281,0.0291,0.0281,0.027,0.0244,0.0197,0.0193,0.0164,0.0116,0.0099,0.0091,0.0173,0.0172,0.0171,0.0103,0,0.0027,0.0058,0.0082,0.0137,0.0161,0.0197,0.0251,0.0295,0.0303,0.0302,0.0323,0.0308,0.0322,0.0282,0.0282,0.0236,0.0226,0.0265,0.0095,0.0092,0.0067,0.0083,0.0169,0.0098,0.0097,0.0096,0.0095,0,0.0037,0.0059,0.0103,0.0173,0.0188,0.0219,0.0287,0.0318,0.0343,0.0336,0.0321,0.029,0.0294,0.0265,0.0219,0.0215,0.0172,0.0152,0.0147,0.0099,0.0063,0.0057,0.0084,0.0085,0.0086,0.0086,0.0087,0,0.0029,0.0084,0.012,0.0142,0.0213,0.0243,0.0267,0.0314,0.0343,0.03,0.0292,0.0263,0.0226,0.0164,0.0135,0.0132,0.0062,0.0052,0.0017,0.0015,0.0019,0.0019,0.0016,0.0016,0.0016,0.0016,0.0016,0,0.004,0.0071,0.0106,0.0125,0.0174,0.0212,0.0246,0.0266,0.0273,0.0296,0.0259,0.0255,0.0186,0.0149,0.0103,0.004,0.0026,0.0025,-0.0008,0.0054,0.0059,0.0015,0.0016,0.0014,0.0014,0.0015,0.0015,0,0.003,0.0052,0.0095,0.0149,0.0165,0.0181,0.0232,0.0255,0.0247,0.0257,0.0233,0.0227,0.0164,0.0126,0.0036,0.0011,-0.0057,-0.007,0.0011,-0.0017,-0.0062,-0.0057,-0.0132,-0.0134,-0.0135,-0.0136,-0.0136,0,0.0031,0.0043,0.0094,0.0115,0.0132,0.016,0.0195,0.022,0.024,0.0259,0.0264,0.0216,0.0205,0.0092,0.0021,-0.0085,-0.0079,-0.0125,-0.0084,-0.0055,-0.008,-0.0072,-0.0065,-0.0138,-0.0138,-0.0139,-0.0139,0,0.0032,0.0038,0.0069,0.01,0.0131,0.0187,0.0215,0.0236,0.0267,0.0279,0.0289,0.0237,0.0185,0.0095,0.0011,-0.0056,-0.0113,-0.0136,-0.0134,-0.0096,-0.0063,-0.0085,-0.0077,-0.0143,-0.0142,-0.0142,-0.0142,0,0.0027,0.004,0.0064,0.0098,0.0141,0.0191,0.0218,0.0259,0.0286,0.0312,0.0307,0.0258,0.0226,0.011,0.0028,-0.0049,-0.0056,-0.0074,-0.0074,-0.0071,-0.0031,0.0021,-0.0062,0,0,0,0,0,0.0027,0.0038,0.0067,0.0107,0.0151,0.018,0.024,0.0268,0.03,0.0317,0.0318,0.027,0.0165,0.0117,0.0039,-0.0007,-0.0089,-0.0103,-0.0114,-0.0164,-0.0159,-0.0124,0,0,0,0,0,0,0.0026,0.0046,0.0061,0.0107,0.0137,0.0194,0.0236,0.0265,0.028,0.03,0.0252,0.0237,0.0135,0.0209,0.0033,0.0008,-0.0012,-0.015,-0.0152,-0.0166,-0.0162,-0.0159,-0.0121,0,0,0,0,0]}]]